Showing default

SKYSAT C11, 42987

Orbit data source: Space-Track

SKYSAT C11, 42987 is a payload satellite owned by Terra Bella (US) in SSO that was launched on Tue, 31 Oct 2017 UTC via a MINOTAUR-C 3210 launch vehicle from the Air Force Western Test Range (AFWTR). Payload-class satellites include a variety of spacecraft equipped with specific instruments for various scientific and technological missions. These include communications satellites like Starlink; space stations such as the ISS; scientific satellites like the Hubble; Earth observation satellites from companies like Planet Labs, Umbra, and HawkEye 360; GPS; miniature CubeSats for education and research; and military/defense satellites.

Loading next visibility...
Identifier
42987, 2017-068A
Orbit
SSO
Country
Flag of USUS
Related business
Manufacturer
Maxar SSL
Mission
Partially operational Commercial Imaging
Bus & Motor
SKYSAT-GEN2, Unknown motor
Mass
110 kg wet, 110 kg dry
Launch date (UTC)
2017-10-31 (9 years ago)
Launch vehicle
MINOTAUR-C 3210
Launch site
Air Force Western Test Range (AFWTR)
Object type
Payload
Rocket body
Debris
Shape & HBR
Box, 1.0 m
Radar Cross Section
0.888 m², Medium (>0.1 m² and < 1m²)

Expand to show TLE details & history
Last TLE update: 10 hours ago

TLE from 10 hours ago
0 SKYSAT C11
1 42987U 17068A   26263.41910485  .00027922  00000-0  30881-3 0  9998
2 42987  97.4460  56.8289 0000664  47.9419 312.1896 15.62997359498096
Epoch: 2026-09-20T10:03Z
TLE epoch observation values (Epoch: 2026-09-20T10:03:30.659Z)
Latitude
0.00004°
Longitude
-93.36241°
Altitude
381.85 km
Speed
7.681 km/s
True Right ascension
03h 47m 18s
True Declination
0° 00' 00"
Sunlit
Object was in full shadow at epoch
Visualization orbit readout
Latitude
Unknown
Longitude
Unknown
Altitude
Unknown
Speed
Unknown
Apparent Right ascension
Unknown
Apparent Declination
Unknown
Sunlit
N/A
Visualization observer readout
Local Sidereal Time
13:01:33
Azimuth
Unknown
Elevation
Unknown
Doppler factor
Unknown
Orbital elements
Apogee altitude
376.363 km
Perigee altitude
375.467 km
Semi-major axis
6,754.052 km
Eccentricity
0.00007
Inclination
97.446°
RAAN
56.8289°
Arg. of periapsis
47.9419°
True anomaly
312.18396°
Mean anomaly
312.1896°
Eccentric anomaly
312.18678°
Mean motion
3.91018 °/min
Orbital period
92.07 mins
BSTAR
0.00030881
Loading maneuver chart data...
Computing Atmospheric mass density...
Loading historical data...
Loading historical data...
Loading historical data...
Loading historical data...
Loading historical data...
Loading historical data...
Loading historical data...

Documentation

Showing up to 5 results
|